• In Uzbekistan
  • List of Countries
  • For 7 days
  • Water Temperature
  • Satellite Maps
  • Weather Map
  • Weather Widgets
  • user-avatar
    Login

    Hourly Weather Shaki

    Today, 30 April, Sunday

    Time Temperature Precipitation Wind Pressure Humidity
    00:00 +12°C° 0 mm 1 mps 736 mmHg 73%
    01:00 +11°C° 0 mm 1 mps 736 mmHg 75%
    02:00 +11°C° 0 mm 1 mps 736 mmHg 76%
    03:00 +9°C° 0 mm 0 mps 735 mmHg 78%
    04:00 +11°C° 0 mm 1 mps 735 mmHg 74%
    05:00 +13°C° 0 mm 1 mps 736 mmHg 69%
    06:00 +14°C° 0 mm 1 mps 736 mmHg 65%
    07:00 +16°C° 0 mm 1 mps 736 mmHg 57%
    08:00 +20°C° 0 mm 1 mps 736 mmHg 48%
    09:00 +21°C° 0 mm 2 mps 736 mmHg 39%
    10:00 +23°C° 0 mm 1 mps 735 mmHg 37%
    11:00 +24°C° 0 mm 1 mps 735 mmHg 34%
    12:00 +25°C° 0 mm 1 mps 735 mmHg 32%
    13:00 +26°C° 0 mm 1 mps 735 mmHg 31%
    14:00 +26°C° 0 mm 1 mps 735 mmHg 30%
    15:00 +25°C° 0 mm 1 mps 735 mmHg 32%
    16:00 +24°C° 0 mm 1 mps 735 mmHg 38%
    17:00 +23°C° 0 mm 1 mps 734 mmHg 43%
    18:00 +22°C° 0 mm 1 mps 734 mmHg 49%
    19:00 +20°C° 0 mm 1 mps 734 mmHg 48%
    20:00 +18°C° 0 mm 1 mps 735 mmHg 47%
    21:00 +15°C° 0 mm 1 mps 735 mmHg 46%
    22:00 +14°C° 0 mm 1 mps 735 mmHg 47%
    23:00 +14°C° 0 mm 1 mps 735 mmHg 49%

    Tomorrow, 1 May, Monday

    Time Temperature Precipitation Wind Pressure Humidity
    00:00 +13°C° 0 mm 1 mps 735 mmHg 51%
    01:00 +13°C° 0 mm 1 mps 735 mmHg 51%
    02:00 +13°C° 0 mm 1 mps 735 mmHg 51%
    03:00 +13°C° 0 mm 1 mps 735 mmHg 51%
    04:00 +14°C° 0 mm 1 mps 735 mmHg 49%
    05:00 +15°C° 0 mm 2 mps 735 mmHg 47%
    06:00 +16°C° 0 mm 2 mps 735 mmHg 46%
    07:00 +18°C° 0 mm 2 mps 735 mmHg 39%
    08:00 +21°C° 0 mm 2 mps 735 mmHg 33%
    09:00 +25°C° 0 mm 2 mps 736 mmHg 27%
    10:00 +26°C° 0 mm 2 mps 735 mmHg 25%
    11:00 +27°C° 0 mm 2 mps 735 mmHg 24%
    12:00 +28°C° 0 mm 2 mps 735 mmHg 23%
    13:00 +28°C° 0 mm 1 mps 735 mmHg 23%
    14:00 +28°C° 0 mm 1 mps 735 mmHg 23%
    15:00 +29°C° 0 mm 1 mps 734 mmHg 22%
    16:00 +27°C° 0 mm 1 mps 734 mmHg 28%
    17:00 +25°C° 0 mm 1 mps 735 mmHg 33%
    18:00 +23°C° 0 mm 1 mps 735 mmHg 38%
    19:00 +22°C° 0 mm 1 mps 735 mmHg 35%
    20:00 +19°C° 0 mm 2 mps 735 mmHg 33%
    21:00 +17°C° 0 mm 2 mps 736 mmHg 30%
    22:00 +17°C° 0 mm 2 mps 736 mmHg 31%
    23:00 +17°C° 0 mm 2 mps 735 mmHg 33%

    Day after tomorrow, 2 May, Tuesday

    Time Temperature Precipitation Wind Pressure Humidity
    00:00 +16°C° 0 mm 2 mps 735 mmHg 34%
    01:00 +16°C° 0 mm 1 mps 735 mmHg 38%
    02:00 +16°C° 0 mm 1 mps 735 mmHg 42%
    03:00 +15°C° 0 mm 1 mps 735 mmHg 46%
    04:00 +16°C° 0 mm 1 mps 735 mmHg 47%
    05:00 +18°C° 0 mm 1 mps 735 mmHg 48%
    06:00 +19°C° 0 mm 1 mps 735 mmHg 50%
    07:00 +21°C° 0.1 mm 1 mps 735 mmHg 45%
    08:00 +23°C° 0.1 mm 1 mps 736 mmHg 41%
    09:00 +25°C° 0.1 mm 1 mps 736 mmHg 36%
    10:00 +26°C° 0.1 mm 1 mps 735 mmHg 34%
    11:00 +27°C° 0.1 mm 2 mps 735 mmHg 32%
    12:00 +28°C° 0.1 mm 2 mps 735 mmHg 30%
    13:00 +28°C° 0 mm 3 mps 735 mmHg 29%
    14:00 +29°C° 0 mm 3 mps 734 mmHg 29%
    15:00 +29°C° 0 mm 3 mps 734 mmHg 28%
    16:00 +28°C° 0 mm 3 mps 734 mmHg 33%
    17:00 +26°C° 0 mm 2 mps 734 mmHg 37%
    18:00 +24°C° 0 mm 2 mps 734 mmHg 41%
    19:00 +23°C° 0 mm 2 mps 734 mmHg 41%
    20:00 +21°C° 0 mm 2 mps 734 mmHg 41%
    21:00 +20°C° 0 mm 2 mps 734 mmHg 40%
    22:00 +19°C° 0.1 mm 2 mps 734 mmHg 41%
    23:00 +20°C° 0.1 mm 1 mps 733 mmHg 42%

    3 May, Wednesday

    Time Temperature Precipitation Wind Pressure Humidity
    00:00 +19°C° 0.1 mm 1 mps 733 mmHg 44%
    01:00 +19°C° 0.1 mm 1 mps 733 mmHg 44%
    02:00 +19°C° 0.1 mm 1 mps 733 mmHg 45%
    03:00 +19°C° 0.1 mm 1 mps 732 mmHg 46%
    04:00 +19°C° 0.3 mm 1 mps 732 mmHg 48%
    05:00 +19°C° 0.3 mm 1 mps 732 mmHg 51%
    06:00 +19°C° 0.3 mm 1 mps 732 mmHg 53%
    07:00 +21°C° 0.4 mm 1 mps 732 mmHg 50%
    08:00 +21°C° 0.4 mm 2 mps 733 mmHg 48%
    09:00 +23°C° 0.4 mm 2 mps 733 mmHg 45%
    10:00 +24°C° 0.2 mm 2 mps 732 mmHg 43%
    11:00 +26°C° 0.2 mm 2 mps 732 mmHg 41%
    12:00 +27°C° 0.2 mm 2 mps 732 mmHg 39%
    13:00 +27°C° 0.2 mm 2 mps 731 mmHg 39%
    14:00 +27°C° 0.2 mm 2 mps 731 mmHg 38%
    15:00 +27°C° 0.2 mm 2 mps 731 mmHg 38%
    16:00 +26°C° 0.1 mm 2 mps 731 mmHg 42%
    17:00 +25°C° 0.1 mm 1 mps 731 mmHg 45%
    18:00 +24°C° 0.1 mm 1 mps 731 mmHg 49%
    19:00 +22°C° 0.3 mm 1 mps 731 mmHg 51%
    20:00 +20°C° 0.3 mm 1 mps 731 mmHg 54%
    21:00 +19°C° 0.3 mm 1 mps 732 mmHg 56%
    22:00 +18°C° 0.3 mm 1 mps 732 mmHg 55%
    23:00 +18°C° 0.3 mm 1 mps 732 mmHg 53%

    4 May, Thursday

    Time Temperature Precipitation Wind Pressure Humidity
    00:00 +17°C° 0.3 mm 2 mps 732 mmHg 52%
    01:00 +17°C° 0 mm 2 mps 731 mmHg 53%
    02:00 +16°C° 0 mm 2 mps 731 mmHg 55%
    03:00 +16°C° 0 mm 2 mps 731 mmHg 57%
    04:00 +16°C° 0 mm 2 mps 731 mmHg 56%
    05:00 +17°C° 0 mm 2 mps 732 mmHg 55%
    06:00 +18°C° 0 mm 2 mps 732 mmHg 54%
    07:00 +20°C° 0 mm 3 mps 732 mmHg 49%
    08:00 +22°C° 0 mm 3 mps 732 mmHg 43%
    09:00 +25°C° 0 mm 4 mps 732 mmHg 38%
    10:00 +26°C° 0 mm 4 mps 732 mmHg 36%
    11:00 +27°C° 0 mm 3 mps 732 mmHg 34%
    12:00 +28°C° 0 mm 3 mps 732 mmHg 31%
    13:00 +28°C° 0 mm 3 mps 731 mmHg 31%
    14:00 +28°C° 0 mm 3 mps 731 mmHg 30%
    15:00 +28°C° 0 mm 2 mps 731 mmHg 29%
    16:00 +26°C° 0 mm 2 mps 731 mmHg 36%
    17:00 +25°C° 0 mm 1 mps 731 mmHg 42%
    18:00 +23°C° 0 mm 1 mps 732 mmHg 48%
    19:00 +22°C° 0.1 mm 1 mps 732 mmHg 46%
    20:00 +20°C° 0.1 mm 1 mps 732 mmHg 45%
    21:00 +17°C° 0.1 mm 2 mps 733 mmHg 43%
    22:00 +18°C° 0 mm 1 mps 733 mmHg 46%
    23:00 +16°C° 0 mm 1 mps 733 mmHg 49%

    5 May, Friday

    Time Temperature Precipitation Wind Pressure Humidity
    00:00 +15°C° 0 mm 1 mps 733 mmHg 51%
    01:00 +14°C° 0 mm 1 mps 733 mmHg 52%
    02:00 +14°C° 0 mm 1 mps 733 mmHg 54%
    03:00 +14°C° 0 mm 1 mps 733 mmHg 55%
    04:00 +15°C° 0 mm 1 mps 733 mmHg 55%
    05:00 +16°C° 0 mm 1 mps 733 mmHg 55%
    06:00 +18°C° 0 mm 1 mps 734 mmHg 55%
    07:00 +20°C° 0 mm 1 mps 734 mmHg 50%
    08:00 +21°C° 0 mm 2 mps 734 mmHg 45%
    09:00 +24°C° 0 mm 2 mps 734 mmHg 40%
    10:00 +25°C° 0 mm 2 mps 734 mmHg 39%
    11:00 +26°C° 0 mm 2 mps 734 mmHg 38%
    12:00 +26°C° 0 mm 2 mps 733 mmHg 36%
    13:00 +27°C° 0 mm 2 mps 733 mmHg 36%
    14:00 +27°C° 0 mm 1 mps 733 mmHg 36%
    15:00 +27°C° 0 mm 1 mps 733 mmHg 36%
    16:00 +26°C° 0 mm 1 mps 733 mmHg 41%
    17:00 +25°C° 0 mm 1 mps 733 mmHg 45%
    18:00 +24°C° 0 mm 1 mps 733 mmHg 49%
    19:00 +21°C° 0.1 mm 2 mps 733 mmHg 55%
    20:00 +19°C° 0.1 mm 3 mps 734 mmHg 61%
    21:00 +17°C° 0.1 mm 3 mps 734 mmHg 66%
    22:00 +16°C° 0.4 mm 3 mps 734 mmHg 70%
    23:00 +16°C° 0.4 mm 2 mps 734 mmHg 73%
    Show more